[[{"header":{"parameterUnit":"m.s-1","parameterCategory":1,"la1":30.2992,"la2":30.254,"lo1":-89.0895,"lo2":-89.0443,"dy":0.0025,"dx":0.0025,"nx":19,"ny":19,"refTime":"2026-04-05T09:00:00:Z","depth":0,"parameterNumber":2,"parameterNumberName":"U-component_of_WINDS"},"data":[0,0,0,1.4876,1.4875,1.4842,1.4841,1.4809,1.4808,0,0,0,0,0,0,0,0,0,0,0,1.4893,1.4893,1.4876,1.4875,1.4842,1.4841,1.4809,1.4808,0,0,0,0,0,0,0,0,0,0,0,1.4893,1.4893,1.4893,1.4875,1.4842,1.4841,1.4809,1.483,0,0,0,0,0,0,0,0,0,0,1.4861,1.4885,1.4893,1.4893,1.4875,1.4842,1.4841,1.4831,1.4829,1.4829,0,1.4832,0,1.482,1.4807,1.4807,0,0,0,1.487,1.4887,1.4871,1.4893,1.4875,1.4842,1.4855,1.483,1.4827,1.4826,1.4831,1.4829,1.4819,1.4807,1.4807,1.4828,1.4828,0,0,1.4871,1.4891,1.4873,1.487,1.4877,1.4856,1.4854,1.4828,1.4834,1.4831,1.4828,1.4819,1.4807,1.4806,1.4827,1.4828,0,0,0,1.4881,1.4893,1.4877,1.4871,1.4865,1.4855,1.4853,1.4835,1.4829,1.4828,1.4818,1.4807,1.4806,1.4827,1.4828,1.4865,0,0,0,1.4882,1.4898,1.4878,1.489,1.4865,1.485,1.4861,1.4831,1.4827,1.4818,1.4807,1.4806,1.4827,1.4827,1.4863,1.4879,0,0,0,1.4893,1.4899,1.4897,1.4891,1.4877,1.485,1.4842,1.4829,1.4821,1.4807,1.4806,1.4826,1.4827,1.4861,1.4876,1.489,0,0,0,1.4911,1.493,1.4898,1.4916,1.4878,1.4874,1.4841,1.4837,1.4829,1.4806,1.4827,1.4828,1.4861,1.4874,1.4888,1.4904,1.4913,0,0,1.4946,1.4935,1.4944,1.4914,1.4921,1.4877,1.4889,1.4863,1.4843,1.4834,1.4834,1.4864,1.4876,1.4889,1.4958,1.4965,0,0,0,1.4962,1.4969,1.4966,1.496,1.4941,1.4926,1.4896,1.4886,1.4878,1.4843,1.4872,1.4879,1.4886,1.4893,1.4899,1.4903,1.4832,1.4832,1.4832,1.5039,1.5014,1.5027,1.4998,1.4993,1.4962,1.4955,1.4936,1.4911,1.4919,1.4916,1.496,1.4969,1.4974,1.4979,1.4923,1.4923,1.4923,1.4923,1.5088,1.5093,1.5062,1.5063,1.5036,1.5036,1.5007,1.499,1.4986,1.4961,1.4966,1.494,1.4982,1.4985,1.4926,1.4925,1.4925,1.4925,1.4925,1.5135,1.5133,1.5122,1.5111,1.5105,1.5074,1.5072,1.5047,1.5024,1.5029,1.5022,1.5021,1.5017,1.5028,1.5028,1.5028,1.5028,1.5028,1.5028,1.5188,1.5174,1.5175,1.5158,1.5151,1.5138,1.5108,1.51,1.5084,1.5066,1.5066,1.5041,1.4992,1.498,1.5031,1.503,1.503,1.503,1.5029,1.5245,1.5228,1.5231,1.5224,1.5201,1.5196,1.5165,1.5151,1.5141,1.514,1.5114,1.5082,1.5069,1.5064,1.5053,1.512,1.512,1.512,1.512,1.5283,1.5275,1.5272,1.5262,1.525,1.5223,1.5225,1.5202,1.5175,1.5167,1.5154,1.5139,1.5135,1.5123,1.5117,1.5107,1.5186,1.5186,1.5186,1.5316,1.5306,1.5313,1.5288,1.5268,1.5252,1.5253,1.5243,1.5209,1.5188,1.516,1.5157,1.5132,1.5125,1.5102,1.5093,1.5074,0,0]},{"header":{"parameterUnit":"m.s-1","parameterCategory":1,"la1":30.2992,"la2":30.254,"lo1":-89.0895,"lo2":-89.0443,"dy":0.0025,"dx":0.0025,"nx":19,"ny":19,"refTime":"2026-04-05T09:00:00:Z","depth":0,"parameterNumber":3,"parameterNumberName":"V-component_of_WINDS"},"data":[0,0,0,3.3666,3.3672,3.4017,3.4018,3.4426,3.4429,0,0,0,0,0,0,0,0,0,0,0,3.3544,3.3546,3.3665,3.3673,3.4016,3.4018,3.4425,3.4429,0,0,0,0,0,0,0,0,0,0,0,3.3543,3.3546,3.3548,3.3674,3.4016,3.4018,3.4424,3.4176,0,0,0,0,0,0,0,0,0,0,3.3848,3.3717,3.3545,3.3548,3.3676,3.4016,3.4018,3.4165,3.4192,3.4256,0,3.4308,0,3.4375,3.4454,3.4456,0,0,0,3.3688,3.3694,3.3805,3.3549,3.3679,3.4015,3.3866,3.418,3.4211,3.4291,3.4314,3.433,3.4381,3.4457,3.4459,3.4779,3.478,0,0,3.3669,3.3596,3.3783,3.3823,3.3768,3.3855,3.3876,3.4199,3.4219,3.4316,3.434,3.4388,3.4459,3.4462,3.4779,3.478,0,0,0,3.3604,3.3582,3.3685,3.3806,3.387,3.3864,3.3889,3.4205,3.4245,3.4345,3.4393,3.4461,3.4466,3.4778,3.4779,3.4748,0,0,0,3.3594,3.3544,3.3676,3.3635,3.3863,3.4042,3.3887,3.4222,3.4261,3.4391,3.4462,3.447,3.4777,3.4779,3.4747,3.4746,0,0,0,3.3528,3.3537,3.358,3.363,3.3775,3.4038,3.4097,3.4232,3.429,3.4456,3.4471,3.4777,3.4778,3.4747,3.4745,3.481,0,0,0,3.3438,3.3548,3.3578,3.372,3.3772,3.4016,3.4096,3.4282,3.4421,3.4463,3.4777,3.4779,3.4746,3.4745,3.4808,3.4851,3.4862,0,0,3.3537,3.3558,3.3647,3.3684,3.3904,3.3969,3.4186,3.4383,3.4465,3.467,3.4679,3.4748,3.4745,3.4809,3.4946,3.4954,0,0,0,3.3654,3.3717,3.3791,3.3919,3.4071,3.4201,3.4372,3.4445,3.4622,3.4555,3.479,3.4791,3.4832,3.4856,3.4862,3.4902,3.4787,3.4786,3.4786,3.369,3.3788,3.3942,3.4082,3.4205,3.4379,3.4489,3.4616,3.4681,3.4734,3.4796,3.4867,3.4892,3.4898,3.4938,3.4826,3.4826,3.4826,3.4826,3.3844,3.3949,3.403,3.4209,3.4312,3.4463,3.4635,3.4675,3.4831,3.4829,3.487,3.4859,3.4903,3.4943,3.4825,3.4825,3.4825,3.4825,3.4825,3.3879,3.3947,3.4032,3.4227,3.4366,3.4504,3.4649,3.4738,3.4823,3.4863,3.4938,3.4939,3.4951,3.4892,3.4893,3.4893,3.4893,3.4893,3.4894,3.3882,3.398,3.4091,3.426,3.4354,3.4488,3.4662,3.4757,3.4885,3.4938,3.494,3.4998,3.4889,3.486,3.4898,3.4897,3.4897,3.4896,3.4896,3.4003,3.399,3.4162,3.4255,3.446,3.4592,3.4703,3.4888,3.4979,3.5047,3.5097,3.5001,3.503,3.5025,3.5002,3.5075,3.5075,3.5075,3.5075,3.4033,3.4056,3.4252,3.4395,3.4545,3.4663,3.4854,3.4989,3.5128,3.519,3.5192,3.5169,3.516,3.5194,3.5185,3.5165,3.5278,3.5278,3.5279,3.4114,3.4154,3.43,3.4435,3.4601,3.4742,3.4924,3.5085,3.524,3.5289,3.5241,3.5233,3.5195,3.5178,3.5227,3.5212,3.5176,0,0]}]]